Weather History for Waukesha, WI

Change the Weather History Date:

Monday, February 27, 2012

  Actual Average Record
Temperature  
Mean Temperature 27 °F -  
Max Temperature 33 °F 38 °F 64 °F (1976)
Min Temperature 21 °F 22 °F -5 °F (2014)
Degree Days  
Heating Degree Days 38    
Moisture  
Dew Point 19 °F    
Average Humidity 69    
Maximum Humidity 86    
Minimum Humidity 60    
Precipitation  
Precipitation 0.00 in - - ()
Sea Level Pressure  
Sea Level Pressure 30.26 in    
Wind  
Wind Speed 13 mph (WSW)    
Max Wind Speed 22 mph    
Max Gust Speed 29 mph    
Visibility 10 miles    
Events      
Averages and records for this station are not official NWS values.
T = Trace of Precipitation, MM = Missing Value Source: NWS Daily Summary

Daily Weather History Graph

Daily Weather History Graph

Search for Another Location

Airport:

Trip Planner

Search our weather history database for the weather conditions in past years. The results will help you decide how hot, cold, wet, or windy it might be!

Date:

Astronomy

Feb. 27, 2012 Rise Set
Actual Time 6:33 AM CST 5:39 PM CST
Civil Twilight 6:04 AM CST 6:07 PM CST
Nautical Twilight 5:31 AM CST 6:40 PM CST
Astronomical Twilight 4:58 AM CST 7:13 PM CST
Moon 8:51 AM CST 11:43 PM CST
Length of Visible Light 12h 03m
Length of Day
11h 06m
Waxing Crescent, 29% of the Moon is Illuminated
Feb 27
Waxing Crescent
Feb 29
First Quarter
Mar 8
Full
Mar 14
Last Quarter
Mar 22
New

Hourly Weather History & Observations

Time (CST) Temp. Windchill Dew Point Humidity Pressure Visibility Wind Dir Wind Speed Gust Speed Precip Events Conditions
12:15 AM 33.8 °F 24.3 °F 21.2 °F 60% 29.99 in 10.0 mi WSW 13.8 mph 26.5 mph N/A   Clear
12:55 AM 32.0 °F 20.1 °F 19.4 °F 60% 29.99 in 10.0 mi WSW 19.6 mph 25.3 mph N/A   Clear
1:15 AM 32.0 °F 20.8 °F 19.4 °F 60% 30.00 in 10.0 mi WSW 17.3 mph 23.0 mph N/A   Clear
1:35 AM 32.0 °F 21.6 °F 19.4 °F 60% 30.00 in 10.0 mi WSW 15.0 mph 20.7 mph N/A   Clear
1:55 AM 32.0 °F 22.5 °F 19.4 °F 60% 30.00 in 10.0 mi WSW 12.7 mph 18.4 mph N/A   Clear
2:15 AM 30.2 °F 20.2 °F 19.4 °F 64% 30.00 in 10.0 mi WSW 12.7 mph - N/A   Clear
2:35 AM 30.2 °F 18.9 °F 19.4 °F 64% 30.00 in 10.0 mi WSW 16.1 mph 19.6 mph N/A   Clear
2:55 AM 30.2 °F 17.1 °F 17.6 °F 60% 30.02 in 10.0 mi West 21.9 mph 27.6 mph N/A   Clear
3:15 AM 28.4 °F 16.2 °F 17.6 °F 64% 30.03 in 10.0 mi West 17.3 mph 24.2 mph N/A   Clear
3:35 AM 28.4 °F 16.6 °F 17.6 °F 64% 30.03 in 10.0 mi West 16.1 mph 24.2 mph N/A   Clear
3:55 AM 28.4 °F 18.0 °F 17.6 °F 64% 30.04 in 10.0 mi West 12.7 mph 20.7 mph N/A   Clear
4:15 AM 28.4 °F 15.8 °F 17.6 °F 64% 30.05 in 10.0 mi West 18.4 mph 26.5 mph N/A   Clear
6:45 AM 26.6 °F 13.8 °F 17.6 °F 69% 30.12 in 10.0 mi West 17.3 mph 28.8 mph N/A   Overcast
7:05 AM 26.6 °F 14.7 °F 17.6 °F 69% 30.13 in 10.0 mi West 15.0 mph 25.3 mph N/A   Scattered Clouds
7:45 AM 26.6 °F 13.4 °F 17.6 °F 69% 30.17 in 10.0 mi West 18.4 mph 24.2 mph N/A   Scattered Clouds
8:45 AM 26.6 °F 13.4 °F 17.6 °F 69% 30.19 in 10.0 mi West 18.4 mph 27.6 mph N/A   Scattered Clouds
9:45 AM 28.4 °F 16.2 °F 17.6 °F 64% 30.23 in 10.0 mi West 17.3 mph 27.6 mph N/A   Overcast
10:45 AM 30.2 °F 18.5 °F 19.4 °F 64% 30.26 in 10.0 mi West 17.3 mph - N/A   Overcast
11:45 AM 28.4 °F 16.6 °F 19.4 °F 69% 30.30 in 10.0 mi West 16.1 mph 27.6 mph N/A   Overcast
12:45 PM 30.2 °F 18.9 °F 19.4 °F 64% 30.30 in 10.0 mi West 16.1 mph 27.6 mph N/A   Overcast
1:45 PM 32.0 °F 20.5 °F 21.2 °F 64% 30.30 in 10.0 mi West 18.4 mph - N/A   Scattered Clouds
2:45 PM 32.0 °F 22.1 °F 21.2 °F 64% 30.34 in 10.0 mi WNW 13.8 mph 25.3 mph N/A   Scattered Clouds
3:45 PM 33.8 °F 24.3 °F 21.2 °F 60% 30.37 in 10.0 mi West 13.8 mph - N/A   Clear
4:45 PM 32.0 °F 23.0 °F 19.4 °F 60% 30.38 in 10.0 mi West 11.5 mph - N/A   Clear
5:45 PM 30.2 °F 20.8 °F 19.4 °F 64% 30.41 in 10.0 mi West 11.5 mph - N/A   Clear
6:45 PM 26.6 °F 16.2 °F 17.6 °F 69% 30.43 in 10.0 mi West 11.5 mph - N/A   Clear
7:45 PM 26.6 °F - 17.6 °F 69% 30.44 in 10.0 mi Calm Calm - N/A   Clear
8:15 PM 26.6 °F - 17.6 °F 69% 30.44 in 10.0 mi Calm Calm - N/A   Clear
8:35 PM 24.8 °F - 17.6 °F 74% 30.44 in 10.0 mi Calm Calm - N/A   Clear
8:45 PM 24.8 °F - 17.6 °F 74% 30.44 in 10.0 mi Calm Calm - N/A   Clear
8:55 PM 24.8 °F - 17.6 °F 74% 30.44 in 10.0 mi Calm Calm - N/A   Clear
9:15 PM 23.0 °F - 17.6 °F 80% 30.44 in 10.0 mi Calm Calm - N/A   Clear
9:35 PM 24.8 °F - 19.4 °F 80% 30.44 in 10.0 mi Calm Calm - N/A   Clear
9:55 PM 23.0 °F 17.0 °F 17.6 °F 80% 30.45 in 10.0 mi WSW 4.6 mph - N/A   Clear
10:15 PM 26.6 °F 21.2 °F 17.6 °F 69% 30.44 in 10.0 mi SW 4.6 mph - N/A   Clear
10:35 PM 23.0 °F 15.8 °F 17.6 °F 80% 30.45 in 10.0 mi SSW 5.8 mph - N/A   Clear
10:55 PM 24.8 °F 17.9 °F 19.4 °F 80% 30.45 in 10.0 mi SSW 5.8 mph - N/A   Clear
11:15 PM 23.0 °F - 17.6 °F 80% 30.45 in 10.0 mi Calm Calm - N/A   Clear
11:35 PM 21.2 °F - 17.6 °F 86% 30.45 in 10.0 mi Calm Calm - N/A   Clear
11:55 PM 21.2 °F - 17.6 °F 86% 30.45 in 10.0 mi Calm Calm - N/A   Clear